Location: Caseificio
(44.7500°N, 11.0500°E)
Time: 22:31:56
(UTC+00:00)

Nadezhda 1 Rocket - Pass Details

Date: 26 May 2022
Orbit: 940 x 1006 km, 83.0° (Epoch: 29 June)

Event Time Altitude Azimuth Distance (km) Brightness Sun altitude
Exits shadow 02:15:04 16° 215° (SW) 2,378 5.4 -12.1°
Maximum altitude 02:20:02 47° 284° (WNW) 1,290 4.5 -11.5°
Drops below altitude 10° 02:26:06 10° 358° (N) 2,746 7.0 -10.8°
Sets 02:28:44 0° 4° (N) 3,688 7.8 -10.5°
